Location: Unspecified
(51.0000°N, 12.0000°E)
Time: 01:31:47

ISS - Pass Details

Date: 10 March 2018
Orbit: 403 x 406 km, 51.6° (Epoch: 22 March)

Event Time Altitude Azimuth Distance (km) Brightness Sun altitude
Exits shadow 05:34:46 16° 279° (W) 1,152 -2.1 -10.7°
Maximum altitude 05:37:16 80° 5° (N) 417 -3.8 -10.3°
Drops below altitude 10° 05:40:34 10° 94° (E) 1,465 0.6 -9.8°
Sets 05:42:39 0° 95° (E) 2,324 2.1 -9.5°
